Weather History for KPEX - April, 2013

Change the Weather History Date:

Wednesday, April 10, 2013

  Actual Average (KLJF) Record (KLJF)
Temperature  
Mean Temperature 34 °F -  
Max Temperature 37 °F 53 °F 86 °F (1977)
Min Temperature 31 °F 30 °F 15 °F (1989)
Degree Days  
Heating Degree Days 31    
Moisture  
Dew Point 21 °F    
Average Humidity 57    
Maximum Humidity 80    
Minimum Humidity 44    
Precipitation  
Precipitation 0.00 in - - ()
Sea Level Pressure  
Sea Level Pressure 30.06 in    
Wind  
Wind Speed 11 mph (NE)    
Max Wind Speed 18 mph    
Max Gust Speed 28 mph    
Visibility 10 miles    
Events Snow    
Averages and records for this station are not official NWS values.
T = Trace of Precipitation, MM = Missing Value Source: NWS Daily Summary

Daily Weather History Graph

Daily Weather History Graph

Search for Another Location

Airport or City:

Trip Planner

Search our weather history database for the weather conditions in past years. The results will help you decide how hot, cold, wet, or windy it might be!

Date:

Astronomy

Apr. 10, 2013 Rise Set
Actual Time 6:42 AM CDT 7:58 PM CDT
Civil Twilight 6:11 AM CDT 8:29 PM CDT
Nautical Twilight 5:35 AM CDT 9:06 PM CDT
Astronomical Twilight 4:56 AM CDT 9:45 PM CDT
Moon 6:37 AM CDT (4/10) 8:38 PM CDT (4/10)
Length of Visible Light 14h 17m
Length of Day
13h 16m
New Moon, 0% of the Moon is Illuminated
Apr 10
New Moon
Apr 18
First Quarter
Apr 25
Full
May 2
Last Quarter
May 9
New

Hourly Weather History & Observations

Time (CDT) Temp. Windchill Dew Point Humidity Pressure Visibility Wind Dir Wind Speed Gust Speed Precip Events Conditions
12:13 AM 34.0 °F 28.8 °F 24.3 °F 68% 30.18 in 10.0 mi NNE 5.8 mph - N/A   Overcast
12:33 AM 33.8 °F 28.6 °F 24.6 °F 69% 30.19 in 10.0 mi North 5.8 mph - N/A   Overcast
12:51 AM 34.0 °F 27.2 °F 23.9 °F 67% 30.19 in 10.0 mi NNE 8.1 mph - N/A   Overcast
1:13 AM 33.8 °F 27.0 °F 23.9 °F 67% 30.18 in 10.0 mi NE 8.1 mph - N/A   Overcast
1:33 AM 33.8 °F 24.3 °F 23.9 °F 67% 30.11 in 10.0 mi NE 13.8 mph - N/A   Overcast
1:53 AM 33.8 °F 24.3 °F 23.7 °F 67% 30.07 in 10.0 mi NE 13.8 mph 19.6 mph N/A   Mostly Cloudy
2:12 AM 34.2 °F 27.5 °F 23.7 °F 66% 30.13 in 10.0 mi NNE 8.1 mph - N/A   Scattered Clouds
2:33 AM 34.2 °F 27.5 °F 23.9 °F 66% 30.16 in 10.0 mi North 8.1 mph - N/A   Overcast
2:53 AM 34.0 °F 26.6 °F 23.9 °F 67% 30.15 in 10.0 mi North 9.2 mph - N/A   Overcast
3:10 AM 34.0 °F 25.5 °F 23.9 °F 67% 30.13 in 10.0 mi NNE 11.5 mph 16.1 mph N/A   Overcast
3:33 AM 33.8 °F 26.4 °F 24.1 °F 68% 30.11 in 10.0 mi NE 9.2 mph 18.4 mph N/A   Overcast
7:01 AM 32.5 °F 23.7 °F 19.9 °F 60% 30.11 in 10.0 mi NE 11.5 mph 16.1 mph N/A   Overcast
7:13 AM 32.4 °F 22.1 °F 19.9 °F 60% 30.09 in 10.0 mi NE 15.0 mph - N/A   Overcast
7:33 AM 32.4 °F 22.5 °F 19.9 °F 60% 30.10 in 10.0 mi NE 13.8 mph 19.6 mph N/A   Overcast
7:53 AM 32.2 °F 23.2 °F 19.9 °F 61% 30.10 in 10.0 mi NE 11.5 mph 18.4 mph N/A   Overcast
8:13 AM 32.4 °F 23.5 °F 19.4 °F 59% 30.11 in 10.0 mi NE 11.5 mph 20.7 mph N/A   Overcast
8:33 AM 32.5 °F 23.2 °F 19.8 °F 59% 30.11 in 10.0 mi NE 12.7 mph 18.4 mph N/A   Overcast
8:53 AM 32.5 °F 22.7 °F 19.8 °F 59% 30.09 in 10.0 mi NE 13.8 mph 18.4 mph N/A   Overcast
9:13 AM 32.5 °F 21.2 °F 19.2 °F 58% 30.08 in 10.0 mi NE 18.4 mph - N/A   Overcast
9:33 AM 32.5 °F 23.7 °F 19.4 °F 58% 30.10 in 10.0 mi NE 11.5 mph 19.6 mph N/A   Overcast
9:53 AM 32.5 °F 22.7 °F 19.4 °F 58% 30.09 in 10.0 mi NE 13.8 mph 21.9 mph N/A   Overcast
10:13 AM 32.9 °F 22.8 °F 19.0 °F 57% 30.09 in 10.0 mi NE 15.0 mph 21.9 mph N/A   Overcast
10:32 AM 33.3 °F 22.8 °F 19.0 °F 56% 30.09 in 10.0 mi NE 16.1 mph 26.5 mph N/A   Overcast
10:53 AM 33.4 °F 23.5 °F 18.5 °F 54% 30.09 in 10.0 mi NNE 15.0 mph 20.7 mph N/A   Overcast
11:13 AM 33.4 °F 24.3 °F 18.7 °F 55% 30.09 in 10.0 mi NE 12.7 mph 21.9 mph N/A   Overcast
11:33 AM 34.0 °F 24.6 °F 18.3 °F 53% 30.09 in 10.0 mi NE 13.8 mph 20.7 mph N/A   Overcast
11:53 AM 34.3 °F 24.2 °F 17.8 °F 51% 30.07 in 10.0 mi NE 16.1 mph 24.2 mph N/A   Overcast
12:13 PM 34.7 °F 24.7 °F 17.6 °F 50% 30.07 in 10.0 mi NE 16.1 mph 24.2 mph N/A   Overcast
12:33 PM 34.7 °F 26.4 °F 17.6 °F 50% 30.08 in 10.0 mi NE 11.5 mph 20.7 mph N/A   Overcast
12:53 PM 35.1 °F 26.4 °F 17.8 °F 49% 30.09 in 10.0 mi NE 12.7 mph 18.4 mph N/A   Overcast
1:13 PM 35.6 °F 27.1 °F 18.1 °F 49% 30.09 in 10.0 mi NE 12.7 mph 18.4 mph N/A   Overcast
1:33 PM 36.1 °F 29.9 °F 18.3 °F 48% 30.09 in 10.0 mi NE 8.1 mph - N/A   Overcast
1:53 PM 36.0 °F 26.7 °F 17.2 °F 47% 30.09 in 10.0 mi NE 15.0 mph - N/A   Overcast
2:13 PM 36.7 °F 28.0 °F 18.3 °F 47% 30.09 in 10.0 mi NNE 13.8 mph - N/A   Overcast
2:33 PM 36.7 °F 29.4 °F 17.1 °F 45% 30.09 in 10.0 mi NE 10.4 mph 21.9 mph N/A   Overcast
2:53 PM 36.5 °F 29.2 °F 17.8 °F 47% 30.09 in 10.0 mi ENE 10.4 mph - N/A   Overcast
3:13 PM 36.9 °F 29.6 °F 18.5 °F 47% 30.06 in 10.0 mi NE 10.4 mph 20.7 mph N/A   Overcast
3:33 PM 37.0 °F 27.7 °F 17.1 °F 44% 30.05 in 10.0 mi ENE 16.1 mph 21.9 mph N/A   Overcast
3:53 PM 37.0 °F 29.3 °F 17.4 °F 45% 30.04 in 10.0 mi ENE 11.5 mph 24.2 mph N/A   Overcast
4:13 PM 37.4 °F 29.8 °F 17.8 °F 45% 30.03 in 10.0 mi ENE 11.5 mph 20.7 mph N/A   Overcast
4:33 PM 37.6 °F 30.0 °F 18.7 °F 47% 30.03 in 10.0 mi ENE 11.5 mph 18.4 mph N/A   Overcast
4:53 PM 37.6 °F 30.0 °F 19.6 °F 48% 30.04 in 10.0 mi ENE 11.5 mph 17.3 mph N/A   Overcast
5:13 PM 37.6 °F 29.6 °F 20.1 °F 49% 30.04 in 10.0 mi ENE 12.7 mph 19.6 mph N/A   Overcast
5:33 PM 37.6 °F 28.8 °F 21.0 °F 51% 30.03 in 10.0 mi ENE 15.0 mph 21.9 mph N/A   Overcast
5:53 PM 37.4 °F 28.9 °F 22.1 °F 54% 30.02 in 10.0 mi NE 13.8 mph 21.9 mph N/A   Overcast
6:13 PM 36.7 °F 28.4 °F 23.4 °F 59% 30.01 in 10.0 mi NE 12.7 mph 17.3 mph N/A   Overcast
6:33 PM 36.9 °F 27.5 °F 22.3 °F 56% 30.00 in 10.0 mi NE 16.1 mph 21.9 mph N/A   Overcast
6:53 PM 36.9 °F 29.6 °F 22.1 °F 55% 30.01 in 10.0 mi ENE 10.4 mph 19.6 mph N/A   Overcast
7:13 PM 36.9 °F 29.6 °F 22.6 °F 56% 29.99 in 10.0 mi NE 10.4 mph 19.6 mph N/A   Overcast
7:33 PM 36.0 °F 28.0 °F 22.6 °F 58% 29.96 in 10.0 mi NE 11.5 mph - N/A   Overcast
7:53 PM 35.8 °F 27.8 °F 22.1 °F 58% 29.95 in 10.0 mi NE 11.5 mph 17.3 mph N/A   Overcast
8:13 PM 35.6 °F 26.6 °F 22.1 °F 58% 29.93 in 10.0 mi NE 13.8 mph 18.4 mph N/A   Overcast
8:33 PM 35.6 °F 26.6 °F 22.1 °F 58% 29.91 in 10.0 mi NE 13.8 mph 18.4 mph N/A   Overcast
8:53 PM 35.6 °F 27.5 °F 21.4 °F 56% 29.93 in 10.0 mi ENE 11.5 mph - N/A   Overcast
9:13 PM 35.6 °F 28.0 °F 21.0 °F 55% 29.93 in 10.0 mi ENE 10.4 mph - N/A   Overcast
9:33 PM 35.8 °F 29.4 °F 21.0 °F 55% 29.95 in 10.0 mi ENE 8.1 mph - N/A   Overcast
9:52 PM 35.8 °F 29.4 °F 20.1 °F 53% 29.96 in 10.0 mi East 8.1 mph - N/A   Overcast
10:13 PM 34.3 °F 26.5 °F 21.6 °F 60% 29.98 in 5.0 mi East 10.4 mph - N/A Snow Light Snow
10:33 PM 32.9 °F 25.3 °F 23.4 °F 68% 29.98 in 4.0 mi ENE 9.2 mph - N/A Snow Light Snow
10:53 PM 32.0 °F 23.0 °F 26.1 °F 79% 29.96 in 3.0 mi NE 11.5 mph - N/A Snow Light Snow
11:12 PM 31.6 °F 20.7 °F 26.2 °F 80% 29.96 in 2.5 mi ENE 16.1 mph 20.7 mph N/A Snow Light Snow
11:33 PM 32.4 °F 22.5 °F 23.7 °F 70% 29.94 in 7.0 mi ENE 13.8 mph 23.0 mph N/A   Overcast
11:53 PM 33.4 °F 23.5 °F 22.1 °F 63% 29.92 in 7.0 mi ENE 15.0 mph 27.6 mph N/A Snow Light Snow